[Date Prev][Date Next][Thread Prev][Thread Next] - [Date Index][Thread Index][Author Index]
2 Line ISS Keps 9-5
- Subject: [sarex] 2 Line ISS Keps 9-5
- From: "Dave Larsen PhD" <doc@xxxxxxxxxxx>
- Date: Fri, 5 Sep 2003 04:29:43 -0700
ISS
1 25544U 98067A 03248.20945535 .00017846 00000-0 20562-3 0 4528
2 25544 51.6337 337.2687 0006222 207.2314 254.2261 15.62025083273505
----
Via the sarex mailing list at AMSAT.ORG courtesy of AMSAT-NA.
To unsubscribe, send "unsubscribe sarex" to Majordomo@amsat.org
AMSAT Home